ATLAS CENTAUR 2 DEB, 700

Orbit data source: Space-Track

ATLAS CENTAUR 2 DEB, 700 is space debris in LEO originally from a launch on Wed, 27 Nov 1963 UTC launched from the Air Force Eastern Test Range (AFETR). Debris objects in space refer to the collection of defunct objects orbiting the Earth. Examples of debris include non-operational satellites, rocket bodies, and fragments generated from explosions, collisions, or faulty payload assembly.

Loading next visibility...
ATLAS CENTAUR 2 DEB details
Identifier
700, 1963-047F
Orbit
LEO
Last TLE update10 hours ago
Origin
Flag of USNASA LeRC (US)
ManufacturerGD/Convair
MissionSpacecraft
Bus & MotorCENTAUR PART, Unknown motor
MassUnknown
Launch date (UTC)
1963-11-27 (61 years ago)
Launch vehicleUnknown
Launch site
Air Force Eastern Test Range (AFETR)
Object type
Payload
Rocket body
Debris
Shape & HBRUnknown
Radar Cross Section0.510 m², Medium (>0.1 m² and < 1m²)

Expand to show TLE details & history

TLE from 10 hours ago
0 ATLAS CENTAUR 2 DEB
1 00700U 63047F   25015.54925602  .00000414  00000-0  13764-3 0  9996
2 00700  30.4811  79.5616 0718773   3.5306 357.0018 13.39812102980719
Epoch: 2025-01-15T13:10Z
Definitive object data (Epoch: 2025-01-15T13:10:55.72Z)
Latitude0.00001°
Longitude126.58944°
Altitude571.302 km
Speed7.844 km/s
True Right ascension05h 18m 14s
True Declination0° 00' 00"
Sunlit
Object was in full shadow at TLE epoch
Visualization TLE readout
Latitude24.31262°
Longitude-105.17585°
Altitude1,342.404 km
Speed7.078 km/s
Apparent Right ascension12h 51m 31s
Apparent Declination-4° 34' 26"
Sunlit
Object is in daylight
Visualization observer readout
Local Sidereal Time23:24:42
Azimuth325.337° NNW
Elevation-49.598°
Doppler factor1
Orbital elements
Apogee altitude1,652.112 km
Perigee altitude575.137 km
Semi-major axis7,491.762 km
Eccentricity0.0718773
Inclination30.4811°
RAAN79.5616°
Arg. of periapsis3.5306°
True anomaly356.52872°
Mean anomaly357.0018°
Eccentric anomaly356.76974°
Mean motion3.34709 °/min
BSTAR0.00013764
Orbital period107.56 mins
Loading maneuver chart data...

ATLAS CENTAUR 2 DEB Visibility forecast

Observer location: undefined°, undefined

Span
Click to sort rows by Start time (UTC) header in descending order
Start Az.
Max El. time (UTC)
Max El. Az.
Max El.
End time (UTC)
End Az.
9 mins2025-01-16 09:08:39.815Z218.64° SW2025-01-16 09:12:39.815Z157.756° S26.438°2025-01-16 09:17:39.815Z109.452° ESE
11 mins2025-01-16 11:01:39.815Z239.455° WSW2025-01-16 11:05:39.815Z186.379° SSW30.787°2025-01-16 11:12:39.815Z120.943° SE
11 mins2025-01-16 12:55:39.815Z240.268° WSW2025-01-16 12:59:39.815Z200.132° SSW24.176°2025-01-16 13:06:39.815Z146.483° SSE
4 mins2025-01-16 14:52:39.815Z218.682° SW2025-01-16 14:53:39.815Z211.884° SW11.891°2025-01-16 14:56:39.815Z192.605° SSW
|